パンスターズ彗星

C/2017 U5 ( PanSTARRS )

English version
Home page
Updated on September 10, 2020

---------------------------------------------------------------------

・ プロフィール

発見日 2017年10月30日
発見光度 21.3等
発見者 Pan-STARRS 1 telescope (Haleakala)

・ 軌道要素

Epoch 2018 Jan. 2.0 TT = JDT 2458120.5                                          
T 2017 Dec. 19.11330 TT                                 Rudenko                 
q   4.3267559            (2000.0)            P               Q                  
n   0.01413973     Peri.  262.15232     +0.40278800     -0.91041678             
a  16.9372133      Node   163.11448     +0.91415750     +0.39501077             
e   0.7445415      Incl.   18.95654     +0.04558398     +0.12291369             
P  69.7                                                                         
From 92 observations 2017 Oct. 24-2018 Feb. 15, mean residual 0".4.             

・ 光度変化

        m1 = 1.5 + 5 logΔ + 25.0 log r

---------------------------------------------------------------------

軌道要素はM.P.E.C. 2020-R04に掲載されたものです。
光度グラフはComet for Windowsで作成したものです。

---------------------------------------------------------------------

Copyright(C) Seiichi Yoshida (comet@aerith.net). All rights reserved.